Regional Weather Roundup
Issued by NWS

Home | Current Version | Previous Version | Graphics & Text | Print | Product List | Glossary Off
Versions: 1 2 3 4 5 6 7 8 9 10 11 12 13 14 15 16 17 18 19 20 21 22 23 24 25 26 27 28 29 30 31 32 33 34 35 36 37 38 39 40 41 42 43 44 45 46 47 48 49 50

000
ASUS43 KTOP 261708
RWRKS

WEATHER ROUNDUP FOR KANSAS
NATIONAL WEATHER SERVICE GOODLAND KS
1200 PM CDT MON JUN 26 2017

NOTE:  "FAIR" INDICATES FEW OR NO CLOUDS BELOW 12,000 FEET WITH NO
SIGNIFICANT WEATHER AND/OR OBSTRUCTIONS TO VISIBILITY.

KSZ001>006-013>018-027>032-041>047-261800-
NORTHWEST KANSAS

CITY           SKY/WX    TMP DP  RH WIND       PRES   REMARKS
GOODLAND       SUNNY     76  61  59 NW5       30.20F
HAYS           SUNNY     75  61  61 SW8       30.18F
HILL CITY      MOSUNNY   71  62  73 VRB3      30.19F
RUSSELL        PTSUNNY   74  58  57 SW6       30.16F
$$

KSZ061>065-074>080-084>089-261800-
SOUTHWEST KANSAS

CITY           SKY/WX    TMP DP  RH WIND       PRES   REMARKS
DODGE CITY     SUNNY     75  61  61 VRB6      30.20F
ELKHART          N/A     77  54  45 SW10        N/A
GARDEN CITY    CLOUDY    66  59  78 VRB3      30.22F
GREAT BEND     MOSUNNY   75  60  59 SW10      30.18F
LIBERAL        SUNNY     76  62  62 VRB6      30.21F
PRATT          MOSUNNY   77  57  50 S10       30.19F
$$

KSZ066>073-081>083-090>101-261800-
SOUTHEAST KANSAS

CITY           SKY/WX    TMP DP  RH WIND       PRES   REMARKS
CHANUTE          N/A    N/A N/A N/A MISG      30.18F
COFFEYVILLE    CLOUDY    81  64  56 S9        30.17F
HUTCHINSON     SUNNY     82  55  39 SW12      30.16F
MEDICINE LODGE   N/A     80  59  48 S8        30.16F
NEWTON         PTSUNNY   80  58  46 S9G16     30.17F
PARSONS        CLOUDY    78  61  55 SW8       30.19F
WICHITA INTL   MOSUNNY   80  61  52 SW10      30.16F
WICHITA JABRA  MOSUNNY   79  61  53 SW12      30.17F
WICHITA MCCONL SUNNY     78  60  54 SW10      30.17F
WINFIELD       SUNNY     81  63  54 SW10      30.18F
$$

KSZ007>012-019>026-033>040-048>060-102>105-261800-
NORTHEAST KANSAS

CITY           SKY/WX    TMP DP  RH WIND       PRES   REMARKS
CONCORDIA      PTSUNNY   75  59  57 SW8       30.16F
EMPORIA        PTSUNNY   76  61  59 S9        30.16F
LAWRENCE       CLOUDY    66  54  65 NE15G22   30.23F
MANHATTAN      CLOUDY    75  62  64 NE12      30.18F
MARYSVILLE     CLOUDY    72  57  60 SE8       30.20F
OLATHE IND     PTSUNNY   67  54  63 NE18      30.23R
OLATHE EXE     PTSUNNY   64  55  72 NE17      30.23R
SALINA         PTSUNNY   80  59  48 SW9       30.16F
TOPEKA BILLARD PTSUNNY   69  56  62 E16       30.21F
TOPEKA FORBES  CLOUDY    70  56  61 NE9       30.21F
$$




USA.gov is the U.S. government's official web portal to all federal, state and local government web resources and services.